EI4HQ Weather Reports


Display with metric or nautical units.
time (UTC)temp
F
wind
direction
speed
MPH
gust
MPH
rain 1hr
in
rain 24hr
in
rain mn
in
humidity
%
barometer
mb
20260901021803 57 254 4.0 8.0 0.00 0.00 0.00 86 1019.0
20260901020903 57 248 4.0 8.0 0.00 0.00 0.00 86 1019.1
20260901020003 57 250 4.0 6.0 0.00 0.01 0.00 86 1019.1
20260901015403 57 252 4.0 9.0 0.00 0.01 0.00 86 1019.1
20260901014503 57 252 4.0 9.0 0.00 0.01 0.00 86 1019.2
20260901013603 57 252 4.0 8.0 0.00 0.02 0.00 85 1019.3
20260901012703 57 248 4.0 8.0 0.00 0.03 0.00 85 1019.3
20260901011803 57 249 3.0 7.0 0.00 0.03 0.00 85 1019.4
20260901010903 57 251 4.0 8.0 0.00 0.03 0.00 85 1019.4
20260901010003 57 256 4.0 7.0 0.00 0.03 0.00 85 1019.3
20260901005403 57 255 3.0 7.0 0.00 0.03 0.00 84 1019.4
20260901004503 57 255 4.0 7.0 0.00 0.03 0.00 84 1019.4
20260901003603 57 255 4.0 8.0 0.00 0.03 0.00 84 1019.4
20260901002703 57 253 4.0 9.0 0.00 0.03 0.00 84 1019.5
20260901001803 57 247 2.0 7.0 0.00 0.03 0.00 83 1019.6
20260901000903 57 260 2.0 6.0 0.00 0.03 0.00 83 1019.5
20260901000003 57 264 2.0 6.0 0.00 0.03 0.00 83 1019.5
20260831235403 57 263 3.0 6.0 0.00 0.03 0.00 83 1019.6
20260831234503 57 262 4.0 8.0 0.00 0.03 0.00 83 1019.6
20260831233603 57 254 4.0 8.0 0.00 0.03 0.00 83 1019.7
20260831232703 57 258 4.0 9.0 0.00 0.03 0.00 82 1019.8
20260831231803 57 258 4.0 7.0 0.00 0.03 0.00 82 1019.9
20260831230903 57 257 3.0 6.0 0.00 0.03 0.00 82 1019.9
20260831230003 57 262 4.0 10.0 0.00 0.03 0.00 82 1019.9
20260831225403 57 262 4.0 10.0 0.00 0.03 0.03 81 1020.0
20260831224503 57 264 4.0 8.0 0.00 0.03 0.03 81 1020.0
20260831223603 57 270 3.0 6.0 0.00 0.03 0.03 81 1020.0
20260831222703 57 265 4.0 8.0 0.00 0.03 0.03 81 1020.0
20260831221803 57 260 3.0 6.0 0.00 0.03 0.03 80 1019.9
20260831220903 58 259 3.0 6.0 0.00 0.03 0.03 80 1019.9
20260831220003 58 246 3.0 7.0 0.00 0.03 0.03 79 1019.9
20260831215403 58 250 3.0 7.0 0.00 0.03 0.03 79 1019.9
20260831214503 58 255 3.0 6.0 0.00 0.03 0.03 78 1019.9
20260831213603 58 264 3.0 6.0 0.00 0.03 0.03 78 1019.9
20260831212703 59 257 3.0 6.0 0.00 0.03 0.03 77 1019.9
20260831211803 59 250 3.0 6.0 0.00 0.03 0.03 76 1019.8
20260831210904 59 255 3.0 7.0 0.00 0.03 0.03 76 1019.8
20260831210003 60 255 3.0 8.0 0.00 0.03 0.03 75 1019.8
20260831205403 60 249 4.0 7.0 0.00 0.03 0.03 75 1019.8
20260831204503 60 248 4.0 8.0 0.00 0.03 0.03 74 1019.7
20260831203603 60 255 3.0 6.0 0.00 0.03 0.03 74 1019.8
20260831202703 60 252 3.0 7.0 0.00 0.03 0.03 74 1019.8
20260831201803 60 254 3.0 7.0 0.00 0.03 0.03 73 1019.7
20260831200903 60 254 3.0 8.0 0.00 0.03 0.03 73 1019.7
20260831200003 61 252 4.0 7.0 0.00 0.03 0.03 72 1019.6
20260831195403 61 253 3.0 6.0 0.00 0.03 0.03 72 1019.6
20260831194503 61 263 3.0 6.0 0.00 0.03 0.03 71 1019.5
20260831193603 61 257 2.0 6.0 0.00 0.03 0.03 71 1019.5
20260831192703 61 266 3.0 6.0 0.00 0.03 0.03 70 1019.4
20260831191803 62 266 3.0 8.0 0.00 0.03 0.03 70 1019.3
20260831190903 62 261 3.0 7.0 0.00 0.03 0.03 69 1019.3
20260831190003 62 264 3.0 6.0 0.00 0.03 0.03 68 1019.1
20260831185403 62 264 4.0 9.0 0.00 0.03 0.03 68 1019.1
20260831184503 63 254 4.0 9.0 0.00 0.03 0.03 67 1018.9
20260831183603 63 249 4.0 8.0 0.00 0.03 0.03 67 1018.8
20260831182703 63 254 3.0 8.0 0.00 0.03 0.03 68 1018.7
20260831181803 63 259 3.0 6.0 0.00 0.03 0.03 67 1018.7
20260831180903 64 260 2.0 5.0 0.00 0.03 0.03 66 1018.8
20260831180003 64 258 3.0 9.0 0.00 0.03 0.03 66 1018.9
20260831175403 64 257 4.0 11.0 0.00 0.03 0.03 64 1018.8
20260831174503 64 260 3.0 8.0 0.00 0.03 0.03 62 1018.7
20260831173603 64 264 4.0 9.0 0.00 0.03 0.03 61 1018.7
20260831172703 65 264 5.0 13.0 0.00 0.03 0.03 59 1018.7
20260831171803 66 250 5.0 11.0 0.00 0.03 0.03 58 1018.6
20260831170903 66 257 4.0 12.0 0.00 0.03 0.03 59 1018.5
20260831170003 66 270 3.0 8.0 0.00 0.03 0.03 61 1018.5
20260831165403 66 264 3.0 8.0 0.00 0.03 0.03 63 1018.6
20260831164503 66 266 3.0 8.0 0.00 0.03 0.03 63 1018.6
20260831163603 66 269 4.0 9.0 0.00 0.03 0.03 63 1018.5
20260831162703 66 267 4.0 8.0 0.00 0.03 0.03 64 1018.5
20260831161803 66 269 3.0 9.0 0.00 0.03 0.03 64 1018.4
20260831160903 66 270 3.0 7.0 0.00 0.03 0.03 62 1018.3
20260831160003 66 279 2.0 6.0 0.00 0.04 0.03 63 1018.3
20260831155403 66 266 3.0 8.0 0.00 0.06 0.03 62 1018.3
20260831154503 66 271 3.0 9.0 0.00 0.13 0.03 61 1018.2
20260831153603 66 275 3.0 12.0 0.00 0.13 0.03 61 1018.2
20260831152703 66 293 3.0 8.0 0.00 0.13 0.03 61 1018.2
20260831151803 66 302 3.0 6.0 0.00 0.13 0.03 62 1018.2
20260831150903 66 289 2.0 9.0 0.00 0.13 0.03 63 1018.2
20260831150003 66 299 2.0 7.0 0.00 0.13 0.03 62 1018.1
20260831145403 66 299 3.0 10.0 0.00 0.13 0.03 63 1018.2
20260831144503 66 283 3.0 8.0 0.00 0.13 0.03 61 1018.2
20260831143603 66 288 3.0 9.0 0.00 0.13 0.03 62 1018.2
20260831142703 66 304 2.0 5.0 0.00 0.13 0.03 61 1018.0
20260831141803 66 291 3.0 9.0 0.00 0.13 0.03 62 1017.9
20260831140903 67 300 2.0 6.0 0.00 0.13 0.03 63 1017.9
20260831140003 67 289 2.0 9.0 0.00 0.13 0.03 59 1017.8
20260831135403 67 320 3.0 9.0 0.00 0.13 0.03 60 1017.8
20260831134503 67 306 3.0 8.0 0.00 0.14 0.03 61 1017.8
20260831133603 66 303 3.0 8.0 0.00 0.14 0.03 63 1017.8
20260831132703 66 287 3.0 8.0 0.00 0.15 0.03 62 1017.8
20260831131803 66 285 3.0 8.0 0.00 0.16 0.03 63 1017.7
20260831130903 66 322 3.0 10.0 0.00 0.17 0.03 63 1017.7
20260831130003 66 307 3.0 8.0 0.00 0.17 0.03 62 1017.5
20260831125403 66 286 3.0 10.0 0.00 0.17 0.03 66 1017.5
20260831124503 65 315 3.0 12.0 0.00 0.17 0.03 66 1017.5
20260831123603 65 299 4.0 9.0 0.00 0.17 0.03 66 1017.5
20260831122703 65 316 3.0 10.0 0.00 0.17 0.03 66 1017.5
20260831121803 65 292 3.0 9.0 0.00 0.17 0.03 66 1017.5
20260831120903 64 287 4.0 9.0 0.00 0.17 0.03 66 1017.4
20260831120003 64 278 3.0 11.0 0.00 0.17 0.03 67 1017.4
20260831115403 64 295 3.0 8.0 0.00 0.17 0.03 69 1017.2
20260831114503 63 283 4.0 13.0 0.00 0.17 0.03 71 1017.3
20260831113603 62 281 4.0 10.0 0.00 0.17 0.03 72 1017.2
20260831112703 61 283 5.0 12.0 0.00 0.17 0.03 72 1017.1
20260831111803 62 280 4.0 12.0 0.00 0.17 0.03 71 1017.0
20260831110903 62 278 3.0 13.0 0.00 0.17 0.03 71 1017.1
20260831110003 62 303 3.0 10.0 0.00 0.17 0.03 69 1016.9
20260831105403 62 317 3.0 10.0 0.00 0.17 0.03 68 1016.9
20260831104503 62 324 4.0 12.0 0.00 0.17 0.03 69 1016.8
20260831103603 63 327 5.0 12.0 0.00 0.17 0.03 69 1016.7
20260831102703 62 322 4.0 12.0 0.00 0.17 0.03 68 1016.5
20260831101803 62 315 3.0 7.0 0.00 0.17 0.03 70 1016.6
20260831100903 62 310 4.0 11.0 0.00 0.17 0.03 71 1016.6
20260831100003 61 319 3.0 9.0 0.00 0.17 0.03 71 1016.5
20260831095403 61 317 3.0 9.0 0.00 0.17 0.03 72 1016.4
20260831094503 60 302 3.0 10.0 0.00 0.17 0.03 72 1016.3
20260831093603 60 302 3.0 6.0 0.00 0.17 0.03 73 1016.2
20260831092703 60 312 3.0 11.0 0.00 0.17 0.03 74 1016.0
20260831091803 59 310 4.0 9.0 0.00 0.32 0.03 75 1016.1
20260831090903 60 291 3.0 9.0 0.00 0.36 0.03 76 1016.0
20260831090003 60 300 2.0 7.0 0.00 0.36 0.03 75 1015.9
20260831085403 59 306 3.0 12.0 0.00 0.36 0.03 76 1015.8
20260831084503 59 296 3.0 12.0 0.00 0.36 0.03 78 1015.5
20260831083603 59 305 2.0 8.0 0.00 0.36 0.03 80 1015.5
20260831082703 58 321 2.0 7.0 0.00 0.36 0.03 81 1015.4
20260831081803 57 300 2.0 6.0 0.00 0.36 0.03 83 1015.4
20260831080903 57 279 3.0 8.0 0.00 0.36 0.03 83 1015.4
20260831080003 56 274 3.0 6.0 0.00 0.36 0.03 84 1015.2
20260831075403 56 269 3.0 8.0 0.00 0.36 0.03 85 1015.1
20260831074503 56 271 3.0 8.0 0.00 0.36 0.03 85 1015.0
20260831073603 56 280 2.0 7.0 0.00 0.36 0.03 86 1014.9
20260831072703 56 299 2.0 8.0 0.00 0.36 0.03 86 1014.7
20260831071803 55 303 2.0 5.0 0.00 0.36 0.03 87 1014.6
20260831070903 55 290 2.0 6.0 0.00 0.36 0.03 87 1014.5
20260831070003 55 274 3.0 7.0 0.00 0.36 0.03 87 1014.4
20260831065403 55 264 3.0 7.0 0.00 0.36 0.03 87 1014.4
20260831064503 55 260 3.0 8.0 0.00 0.36 0.03 87 1014.3
20260831063603 55 268 2.0 8.0 0.00 0.37 0.03 86 1014.0
20260831062703 55 263 2.0 6.0 0.00 0.39 0.03 86 1014.0
20260831061803 55 264 2.0 5.0 0.00 0.39 0.03 86 1013.9
20260831060903 55 271 2.0 5.0 0.00 0.41 0.03 86 1013.6
20260831060003 55 305 1.0 4.0 0.00 0.45 0.03 86 1013.4
20260831055403 55 316 1.0 4.0 0.00 0.47 0.03 86 1013.4
20260831054503 56 289 2.0 7.0 0.00 0.53 0.03 86 1013.3
20260831053603 56 305 2.0 8.0 0.00 0.53 0.03 86 1013.0
20260831052703 56 320 3.0 8.0 0.00 0.53 0.03 86 1012.9
20260831051803 56 324 3.0 8.0 0.00 0.54 0.03 86 1012.7
20260831050903 56 320 3.0 10.0 0.00 0.54 0.03 86 1012.5
20260831050003 56 321 3.0 11.0 0.00 0.54 0.03 87 1012.3
20260831045403 56 328 6.0 18.0 0.00 0.54 0.03 87 1012.2
20260831044503 56 333 6.0 23.0 0.00 0.54 0.03 87 1012.0
20260831043603 56 322 3.0 11.0 0.00 0.54 0.03 87 1012.0
20260831042703 56 316 3.0 8.0 0.00 0.54 0.03 87 1011.8
20260831041803 56 319 3.0 9.0 0.00 0.54 0.03 87 1011.7
20260831040903 56 307 3.0 7.0 0.00 0.54 0.03 88 1011.4
20260831040003 56 304 2.0 7.0 0.00 0.54 0.03 88 1011.3
20260831035403 56 307 2.0 7.0 0.00 0.54 0.03 88 1011.2
20260831034503 57 320 3.0 7.0 0.00 0.54 0.03 88 1011.0
20260831033603 57 312 4.0 8.0 0.00 0.54 0.03 88 1011.0
20260831032703 57 315 4.0 9.0 0.00 0.54 0.03 89 1010.9
20260831031803 57 314 3.0 8.0 0.00 0.54 0.03 89 1010.7
20260831030903 57 295 3.0 8.0 0.00 0.54 0.03 89 1010.8
20260831030003 57 319 4.0 9.0 0.01 0.54 0.03 89 1010.2
20260831025403 57 318 4.0 7.0 0.01 0.54 0.03 89 1010.1
20260831024503 57 304 3.0 7.0 0.01 0.54 0.03 90 1010.2
20260831023603 57 316 2.0 7.0 0.02 0.54 0.03 90 1009.9
20260831022703 57 322 3.0 9.0 0.03 0.54 0.03 90 1010.1